Location: Krakow
(50.0212°N, 19.9423°E)
Time: 00:56:28
(UTC+02:00)

NOAA 15 - Pass Details

Date: 17 September 2024
Orbit: 795 x 810 km, 98.6° (Epoch: 10 October)

Event Time Altitude Azimuth Distance (km) Brightness Sun altitude
Rises 19:57:12 0° 186° (S) 3,289 7.7 -11.7°
Reaches altitude 10° 19:59:40 10° 194° (SSW) 2,362 7.0 -12.0°
Maximum altitude 20:04:32 39° 263° (W) 1,184 6.1 -12.8°
Drops below altitude 10° 20:09:26 10° 332° (NNW) 2,377 7.8 -13.5°
Sets 20:11:56 0° 340° (NNW) 3,312 8.4 -13.9°
